Regional Weather Roundup
Issued by NWS

Home | Current Version | Previous Version | Text Only | Print | Product List | Glossary Off
Versions: 1 2 3 4 5 6 7 8 9 10 11 12 13 14 15 16 17 18 19 20 21 22 23 24 25 26 27 28 29 30 31 32 33 34 35 36 37 38 39 40 41 42 43 44 45 46 47 48 49 50

321
ASUS45 KABQ 090310
RWRNM
NEW MEXICO REGIONAL WEATHER ROUNDUP
NATIONAL WEATHER SERVICE ALBUQUERQUE NM
800 PM MST THU DEC 08 2016

NOTE: "FAIR" MEANS FEW OR NO CLOUDS BELOW 12,000 FEET AGL WITH NO
       SIGNIFICANT WEATHER OR OBSTRUCTIONS TO VISION.

      THIS PRODUCT IS RELEASED AS TWO VERSIONS.  ONE VERSION NEAR
      THE TOP OF THE HOUR CONTAINING PRELIMINARY DATA FROM ALBUQUERQUE
      AND OTHER STATIONS.  A FINAL VERSION WITH ADDITIONAL DATA IS
      ISSUED ABOUT 10 MINUTES AFTER THE HOUR.

NMZ501-503-504-510>518-090400-
NORTHWEST PLATEAU/NORTHCENTRAL MOUNTAINS

CITY           SKY/WX    TMP DP  RH WIND       PRES   REMARKS
FARMINGTON     CLOUDY    33  16  49 E9        30.28S WCI  25
LOS ALAMOS     FAIR      28  15  57 CALM      30.32R
SANTA FE       FAIR      22  13  68 CALM      30.31F
TAOS           FAIR      21   9  58 W5        30.32R WCI  15
ANGEL FIRE     FAIR      24  13  62 SE6       30.27S WCI  17

$$
NMZ402-403-502-505>509-090400-
WESTCENTRAL MOUNTAINS/SOUTHWEST MOUNTAINS

CITY           SKY/WX    TMP DP  RH WIND       PRES   REMARKS
GALLUP         FAIR      27  17  66 E5        30.29S WCI  22
GRANTS         FAIR      26  16  66 SE7       30.34R WCI  19

$$
NMZ407-409-411-412-090400-
SOUTHERN DESERTS

CITY           SKY/WX    TMP DP  RH WIND       PRES   REMARKS
DEMING         FAIR      36  27  69 E10       30.36S WCI  28
LAS CRUCES     FAIR      33  25  72 SE10      30.40R WCI  24
HOLLOMAN AFB   FAIR      32  24  71 S12       30.46R WCI  23
T OR C         FAIR      37  24  59 S8        30.34R WCI  31

$$
NMZ519>523-090400-
CENTRAL VALLEYS/CENTRAL HIGHLANDS

CITY           SKY/WX    TMP DP  RH WIND       PRES   REMARKS
ALBUQUERQUE    FAIR      30  15  53 E7        30.35S WCI  23
DOUBLE EAGLE   CLEAR     21  10  63 CALM      30.34F
MORIARTY ARPT  FAIR      14  10  85 CALM      30.35S
CLINES CORNERS FAIR      18  15  88 W6        30.31S WCI  10
BELEN          FAIR      29  17  59 CALM      30.36S
SOCORRO        FAIR      32  24  72 SW5       30.37R WCI  27

$$
NMZ524>526-539-540-090400-
SOUTHCENTRAL MOUNTAINS

CITY           SKY/WX    TMP DP  RH WIND       PRES   REMARKS
RUIDOSO        FOG       19  18  93 W5        30.36S VSB 1/4 WCI  13

$$
NMZ527>531-090400-
NORTHEAST HIGHLANDS/NORTHEAST PLAINS

CITY           SKY/WX    TMP DP  RH WIND       PRES   REMARKS
LAS VEGAS      FOG       17  15  92 S18       30.26F VSB 1/4 WCI   1
RATON          CLOUDY    15  12  88 S7        30.28F WCI   5
CLAYTON        CLOUDY    19  15  84 S16       30.38F WCI   4

$$
NMZ532>537-090400-
EASTCENTRAL PLAINS

CITY           SKY/WX    TMP DP  RH WIND       PRES   REMARKS
TUCUMCARI      CLOUDY    25  17  72 S7        30.45F WCI  17
CANNON AFB     CLOUDY    25  18  75 S9        30.46S WCI  16
CLOVIS AIRPORT CLOUDY    25  12  58 S9        30.47S WCI  15

$$
NMZ028-029-538-090400-
SOUTHEAST PLAINS

CITY           SKY/WX    TMP DP  RH WIND       PRES   REMARKS
ROSWELL        CLOUDY    30  21  69 S10       30.50S WCI  21
ARTESIA        CLOUDY    28  27  93 S13       30.52S WCI  18
CARLSBAD       NOT AVBL


$$




USA.gov is the U.S. government's official web portal to all federal, state and local government web resources and services.